Regional Weather Roundup
Issued by NWS

Home | Current Version | Previous Version | Graphics & Text | Print | Product List | Glossary On
Versions: 1 2 3 4 5 6 7 8 9 10 11 12 13 14 15 16 17 18 19 20 21 22 23 24 25 26 27 28 29 30 31 32 33 34 35 36 37 38 39 40 41 42 43 44 45 46 47 48 49 50
833
ASUS43 KBIS 051302
RWRND

NORTH DAKOTA REGIONAL WEATHER ROUNDUP
NATIONAL WEATHER SERVICE BISMARCK ND
800 AM CDT THU MAY 05 2016

NOTE: "FAIR" INDICATES FEW OR NO CLOUDS BELOW 12,000 FEET WITH NO
SIGNIFICANT WEATHER AND/OR OBSTRUCTIONS TO VISIBILITY.


NDZ001>003-009>011-017-051400-
NORTHWEST NORTH DAKOTA

CITY           SKY/WX    TMP DP  RH WIND       PRES   REMARKS
WILLISTON      SUNNY     56  46  69 SW3       29.86R
MINOT          SUNNY     68  42  38 SW18      29.85R
$$

NDZ018>021-031>035-040>046-051400-
SOUTHWEST NORTH DAKOTA

CITY           SKY/WX    TMP DP  RH WIND       PRES   REMARKS
BISMARCK       SUNNY     61  46  57 SW3       29.93R
DICKINSON      SUNNY     56  42  59 S9        29.90S
GARRISON         N/A     58  44  60 CALM      29.89S
HETTINGER ARPT SUNNY     53  43  68 S3        29.95F
$$

NDZ004>008-012>016-024-026-027-054-051400-
NORTHEAST NORTH DAKOTA

CITY           SKY/WX    TMP DP  RH WIND       PRES   REMARKS
GRAND FORKS    MOSUNNY   58  39  49 S10       29.84S
GRND FRKS AFB  SUNNY     68  43  40 W18       29.83R
DEVILS LAKE    SUNNY     60  46  59 W10       29.88R
$$

NDZ022-023-025-028>030-036>039-047>053-051400-
SOUTHEAST NORTH DAKOTA

CITY           SKY/WX    TMP DP  RH WIND       PRES   REMARKS
FARGO          SUNNY     57  34  41 S12       29.91R
JAMESTOWN      SUNNY     62  43  49 W9        29.90S
$$





USA.gov is the U.S. government's official web portal to all federal, state and local government web resources and services.